Flag for U.S.A. Weather past 2 weeks in Bloomington, Illinois, U.S.A.

Now
58 °F

Clear.


Feels Like: 58 °F
Forecast: 59 / 80 °F
Wind: No wind

Location: Bloomington / Normal

Current Time: Aug 2, 2014 at 3:41:03 AM

Latest Report: Aug 2, 2014 at 2:56 AM


Visibility: 10 mi

Pressure: 30.09 "Hg

Humidity: 90%

Dew point: 55 °F

Location of BloomingtonLocation

Historic Weather in Bloomington — Graph

°F

Bloomington temperature yesterday

Maximum temperature yesterday: 78 °F (at 2:56 PM)
Minimum temperature yesterday: 60 °F (at 11:56 PM)
Average temperature yesterday: 67 °F

Past Weeks' High & Low Weather Summary

 TemperatureHumidityPressure
High93 °F (Jul 23, 2:56 PM)100% (Jul 23, 3:56 PM)30.17 "Hg (Jul 23, 3:56 PM)
Low32 °F (Jul 23, 3:56 PM)41% (Jul 27, 1:56 PM)29.76 "Hg (Jul 27, 4:56 AM)
Average68 °F73%30.03 "Hg
* Reported Jul 18 1:56 AM — Aug 2 1:56 AM, Bloomington, Weather by CustomWeather, © 2014

Note: Actual official high and low records may vary slightly from our data, if they occured in-between our weather recording intervals... More about our weather records

Advertising

Bloomington weather history for previous 24 hours

 ConditionsComfort  
Time TempWeatherWind HumidityBarometerVisibility
1:56 AM
Aug 2
57 °FClear.5 mph93%30.09 "Hg9 mi
12:56 AM58 °FClear.3 mph93%30.11 "Hg8 mi
11:56 PM
Aug 1
60 °FClear.5 mph93%30.12 "Hg10 mi
10:56 PM65 °FClear.3 mph84%30.12 "Hg10 mi
9:56 PM63 °FClear.6 mph90%30.08 "Hg10 mi
8:56 PM64 °FPassing clouds.6 mph90%30.09 "Hg10 mi
7:56 PM66 °FSunny.No wind85%30.08 "Hg10 mi
6:56 PM66 °FPartly sunny.3 mph87%30.08 "Hg10 mi
5:56 PM67 °FLight rain. Broken clouds.7 mph84%30.10 "Hg10 mi
4:56 PM69 °FThundershowers. Sunny.3 mph78%30.08 "Hg10 mi
3:56 PM69 °FSunny.8 mph73%30.06 "Hg10 mi
2:56 PM78 °FBroken clouds.12 mph52%30.06 "Hg10 mi
1:56 PM72 °FScattered clouds.No wind68%30.08 "Hg10 mi
1:04 PM70 °FThundershowers. Partly sunny.9 mph83%30.11 "Hg7 mi
12:56 PM69 °FLight rain. Partly sunny.10 mph76%30.09 "Hg7 mi
11:56 AM76 °FPartly sunny.5 mph62%30.09 "Hg10 mi
10:56 AM77 °FScattered clouds.5 mph64%30.09 "Hg10 mi
9:56 AM76 °FSunny.No wind64%30.09 "Hg10 mi
8:56 AM71 °FSunny.3 mph73%30.09 "Hg10 mi
7:56 AM68 °FSunny.3 mph75%30.09 "Hg10 mi
6:56 AM65 °FSunny.No wind81%30.08 "Hg10 mi
5:56 AM64 °FClear.5 mph84%30.07 "Hg10 mi
4:56 AM63 °FClear.No wind84%30.06 "Hg10 mi
3:56 AM64 °FClear.No wind84%30.06 "Hg10 mi
Weather by CustomWeather, © 2014

See weather overviewHow to use our weather pages